Location: Moy Burn
(57.3833°N, 4.0667°W)
Time: 10:15:58
(UTC+00:00)

Cosmos 1833 Rocket - Pass Details

Date: 08 August 2020
Orbit: 831 x 841 km, 71.0° (Epoch: 18 September)

Event Time Altitude Azimuth Distance (km) Brightness Sun altitude
Rises 22:37:46 0° 233° (SW) 3,375 5.7 -13.7°
Reaches altitude 10° 22:40:16 10° 239° (WSW) 2,445 5.0 -13.8°
Maximum altitude 22:45:45 53° 316° (NW) 1,021 3.5 -14.2°
Drops below altitude 10° 22:51:17 10° 33° (NNE) 2,464 5.6 -14.5°
Sets 22:53:49 0° 39° (NE) 3,403 6.3 -14.6°
